User: anonymous   Login
Location: Home
(40.5300°N, 105.0300°W)
Time: 14:59:37
(UTC-06:00)
Language:

STARLINK-2691 - Orbit

View from above orbital plane
View from above orbital plane
View from above satellite
View from above satellite

Ground track
Ground track

The orbit data is extracted from the following two-line orbital elements,

1 48647U 21044K   21271.52094149  .00000625  00000-0  60839-4 0  9990
2 48647  53.0554 208.2991 0001618  64.9743 295.1414 15.06405695 19066
Epoch (UTC): 28 September 2021 12:30:09
Eccentricity: 0.0001618
inclination: 53.0554°
perigee height: 546 km
apogee height: 548 km
right ascension of ascending node: 208.2991°
argument of perigee: 64.9743°
revolutions per day: 15.06405695
mean anomaly at epoch: 295.1414°
orbit number at epoch: 1906

The dashed part of the orbit path shows where the satellite is in the earth's shadow,  

DLR